Location: L�Ave Maria
(50.7161°N, 1.5911°E)
Time: 23:45:22
(UTC+00:00)

ERS-1 Rocket - Pass Details

Date: 10 July 2020
Orbit: 752 x 758 km, 98.5° (Epoch: 14 August)

Event Time Altitude Azimuth Distance (km) Brightness Sun altitude
Exits shadow 20:56:37 - 151° (SSE) 2,482 5.0 -6.8°
Reaches altitude 10° 20:57:07 10° 150° (SSE) 2,285 4.8 -6.9°
Maximum altitude 21:02:05 63° 70° (ENE) 850 3.2 -7.4°
Drops below altitude 10° 21:07:05 10° 351° (N) 2,299 6.5 -7.9°
Sets 21:09:24 0° 348° (NNW) 3,228 7.5 -8.2°
